This is the latest recevied weather packets stored in our database for station/object KC9MWQ-13. If no packets are shown the sender has not sent any weather packets the latest 10 day(s).
| Time | Temp. | Humidity | Pressure | Rain* | Wind** | Luminosity | Snow |
|---|---|---|---|---|---|---|---|
| 1777400461 | 14.44° C | 85% | 1015.7 hPa | 0 mm | - | 240 W/m² | - |
| 1777400156 | 15° C | 85% | 1015.5 hPa | 0 mm | - | 293 W/m² | - |
| 1777399854 | 15° C | 85% | 1015.3 hPa | 0 mm | - | 323 W/m² | - |
| 1777399550 | 14.44° C | 85% | 1015.5 hPa | 0 mm | - | 338 W/m² | - |
| 1777399248 | 14.44° C | 85% | 1015.6 hPa | 0 mm | - | 290 W/m² | - |
| 1777398945 | 15° C | 86% | 1015.5 hPa | 0 mm | - | 236 W/m² | - |
| 1777398642 | 15° C | 86% | 1015.5 hPa | 0 mm | - | 378 W/m² | - |
| 1777398339 | 14.44° C | 86% | 1015.3 hPa | 0 mm | - | 349 W/m² | - |
| 1777398036 | 13.89° C | 86% | 1015.2 hPa | 0 mm | - | 255 W/m² | - |
| 1777397732 | 13.89° C | 89% | 1015.4 hPa | 0 mm | - | 254 W/m² | - |
| 1777397428 | 13.89° C | 87% | 1015.5 hPa | 0 mm | - | 215 W/m² | - |
| 1777397125 | 13.89° C | 88% | 1015.6 hPa | 0 mm | - | 216 W/m² | - |
| 1777396821 | 13.89° C | 88% | 1015.3 hPa | 0 mm | - | 212 W/m² | - |
| 1777396518 | 13.89° C | 87% | 1015.5 hPa | 0 mm | - | 213 W/m² | - |
| 1777396215 | 14.44° C | 88% | 1015.5 hPa | 0 mm | - | 195 W/m² | - |
| 1777395910 | 13.89° C | 86% | 1015.4 hPa | 0 mm | - | 226 W/m² | - |
| 1777395606 | 14.44° C | 87% | 1015.6 hPa | 0 mm | - | 309 W/m² | - |
| 1777395302 | 13.89° C | 88% | 1015.6 hPa | 0 mm | - | 344 W/m² | - |
| 1777395000 | 13.33° C | 88% | 1015.6 hPa | 0 mm | - | 182 W/m² | - |
| 1777394696 | 13.33° C | 89% | 1015.7 hPa | 0 mm | - | 195 W/m² | - |
| 1777394393 | 13.33° C | 89% | 1015.7 hPa | 0 mm | - | 177 W/m² | - |
| 1777394090 | 13.33° C | 89% | 1015.7 hPa | 0 mm | - | 173 W/m² | - |
| 1777393785 | 13.89° C | 89% | 1015.5 hPa | 0 mm | - | 177 W/m² | - |
| 1777393479 | 13.33° C | 89% | 1015.4 hPa | 0 mm | - | 200 W/m² | - |
| 1777393175 | 13.89° C | 88% | 1015.4 hPa | 0 mm | - | 186 W/m² | - |
* Rain latest hour (hover to see other rain measurements)
** Current wind speed in m/s (hover to see current wind gust speed)